Regional Weather Roundup
Issued by NWS

Home | Current Version | Previous Version | Text Only | Print | Product List | Glossary Off
Versions: 1 2 3 4 5 6 7 8 9 10 11 12 13 14 15 16 17 18 19 20 21 22 23 24 25 26 27 28 29 30 31 32 33 34 35 36 37 38 39 40 41 42 43 44 45 46 47 48 49 50

000
ASUS43 KDMX 041007
RWRIA

WEATHER ROUNDUP FOR IOWA
NATIONAL WEATHER SERVICE DES MOINES IA
500 AM CDT TUE AUG 04 2015

NOTE: "FAIR" INDICATES FEW OR NO CLOUDS BELOW 12,000 FEET WITH NO
SIGNIFICANT WEATHER AND/OR OBSTRUCTIONS TO VISIBILITY.

* - THESE STATIONS ARE NOT NWS STATIONS...THUS NOT UNDER NWS
QUALITY CONTROL.  THEY ALSO DO NOT REPORT WEATHER SUCH
AS PRECIPITATION OR FOG.

IAZ001>003-012>014-020>022-031>034-043>046-041100-
   NORTHWEST IOWA

CITY           SKY/WX    TMP DP  RH WIND       PRES   REMARKS
CARROLL *      CLOUDY    61  61 100 CALM      29.97R
CHEROKEE *     MOCLDY    59  59 100 CALM      29.99R
DENISON *      MOCLDY    64  63  94 CALM      29.96R
LE MARS *      PTCLDY    61  59  94 N3        29.99R
ORANGE CITY *  CLEAR     63  61  94 E3        29.99R
SHELDON *      CLEAR     57  55  94 E6        29.97S
SIOUX CITY     CLOUDY    66  61  84 CALM      29.97R
SPENCER        CLEAR     56  52  86 CALM      29.98R
STORM LAKE *   PTCLDY    61  59  94 N6        29.99R
$$

IAZ055>058-069>071-079>083-090>094-041100-
   SOUTHWEST IOWA

CITY           SKY/WX    TMP DP  RH WIND       PRES   REMARKS
ATLANTIC *     CLEAR     64  63  94 CALM      29.97R
AUDUBON *      CLOUDY    64  63  94 CALM      29.99R
CLARINDA *     PTCLDY    68  64  88 VRB5      29.96F
COUNCIL BLFS *   N/A     66  63  88 SE5       29.95S
CRESTON *      PTCLDY    64  61  88 CALM      30.00R
HARLAN  *      CLOUDY    66  66 100 CALM      30.00S
LAMONI         CLOUDY    67  63  87 S5        29.99R
RED OAK *      PTCLDY    66  63  88 CALM      29.95F
SHENANDOAH *   MOCLDY    68  64  88 SE5       29.94F
$$

IAZ047>049-059>061-072>074-084-041100-
   CENTRAL IOWA

CITY           SKY/WX    TMP DP  RH WIND       PRES   REMARKS
AMES           PTCLDY    59  57  93 CALM      29.97R
ANKENY *       CLOUDY    63  63 100 CALM      29.97R
CHARITON *       N/A     64  61  88 S3        29.98R
DES MOINES     PTCLDY    68  59  73 CALM      29.96R
GRINNELL*      CLEAR     61  55  82 CALM      29.98S
KNOXVILLE *    PTCLDY    64  57  77 S5        29.96R
MARSHALLTOWN   CLEAR     57  55  93 CALM      29.96R
PELLA *        PTCLDY    63  63 100 CALM      29.98R
PERRY *        CLOUDY    64  63  94 S5        29.97R
$$

IAZ004>006-015-016-023>025-035-036-041100-
   NORTH CENTRAL IOWA

CITY           SKY/WX    TMP DP  RH WIND       PRES   REMARKS
ALGONA *       CLEAR     57  55  94 N5        29.98R
CLARION *      CLEAR     54  52  94 NE3       29.97R
ESTHERVILLE    CLEAR     53  52  96 N5        29.98S
FORT DODGE *   CLEAR     57  55  94 CALM      29.99R
MASON CITY     CLEAR     56  53  90 NW5       29.98S
FOREST CITY *    N/A     50  50 100 CALM      29.98R FOG
IOWA FALLS *     N/A     55  54  94 CALM      29.98R
$$

IAZ007>011-017>019-026>030-037>042-050>054-066-041100-
   NORTHEAST IOWA

CITY           SKY/WX    TMP DP  RH WIND       PRES   REMARKS
CEDAR RAPIDS   CLEAR     56  56 100 CALM      29.95S
CHARLES CITY * CLEAR     55  55 100 NW3       29.97S
CLINTON *      CLEAR     54  54 100 W3        29.97S
DECORAH *      CLEAR     55  54  94 CALM      29.95R
DUBUQUE        CLEAR     55  53  93 CALM      29.95S
MONTICELLO *   CLEAR     52  52 100 CALM      29.95S
OELWEIN *      CLEAR     54  54 100 CALM      29.96S
WATERLOO       CLEAR     55  54  96 CALM      29.95S
$$

IAZ064-065-067-068-078-041100-
   EAST CENTRAL IOWA

CITY           SKY/WX    TMP DP  RH WIND       PRES   REMARKS
DAVENPORT      CLEAR     54  52  93 W3        29.96R
IOWA CITY      CLEAR     59  56  89 CALM      29.97R
MT. PLEASANT * MOCLDY    63  59  88 CALM      29.98R
MUSCATINE *    CLEAR     59  55  88 CALM      29.96S
QUAD CITIES    CLEAR     59  55  87 SW5       29.95S
$$

IAZ062-063-075>077-085>089-095>099-041100-
   SOUTHEAST IOWA

CITY           SKY/WX    TMP DP  RH WIND       PRES   REMARKS
BURLINGTON     CLOUDY    63  59  87 S3        29.97R
FAIRFIELD *    CLOUDY    63  61  94 CALM      29.98R
FORT MADISON * PTCLDY    63  59  88 S5        29.99R
KEOKUK *       CLOUDY    64  63  94 CALM      29.97R
OSKALOOSA *    CLOUDY    61  59  94 CALM      29.98R
CENTERVILLE *  CLEAR     63  59  88 CALM      30.00S
OTTUMWA        MOCLDY    63  61  93 CALM      29.96R
WASHINGTON *   MOCLDY    59  57  94 SW3       29.99R
$$

ABBREVIATIONS USED IN REMARKS
   TC - TEMPERATURES IN CELSIUS
  WCI - WIND CHILL INDEX
   HX - HEAT INDEX
  VSB - VISIBILITY
$$




USA.gov is the U.S. government's official web portal to all federal, state and local government web resources and services.